Location: Hope
(40.9110°N, 74.9680°W)
Time: 03:59:48
(UTC-05:00)

N. Korean satellite - Visible Passes

Search period start: 18 February 2018 00:00
Search period end: 28 February 2018 00:00
Orbit: 459 x 514 km, 97.2° (Epoch: 17 February)

Date Brightness Start Highest point End Pass type
(mag) Time Alt. Az. Time Alt. Az. Time Alt. Az.
18 Feb 8.4 06:16:02 10° NNE 06:19:28 38° E 06:22:54 10° SSE visible
18 Feb 8.7 18:25:35 10° SSW 18:28:40 31° W 18:31:47 10° NNW visible
19 Feb 9.8 05:52:55 10° NE 05:55:37 19° E 05:58:21 10° SE visible
19 Feb 6.9 18:01:27 10° S 18:04:52 69° W 18:08:20 10° NNW visible
21 Feb 9.9 18:48:47 10° SW 18:51:02 16° W 18:53:19 10° NW visible
22 Feb 8.5 06:14:33 10° NNE 06:18:00 37° E 06:21:27 10° SSE visible
22 Feb 8.6 18:24:02 10° SSW 18:27:09 32° W 18:30:20 10° NNW visible
23 Feb 9.9 05:51:26 10° NE 05:54:09 19° E 05:56:52 10° SE visible
25 Feb 9.9 18:47:09 10° SW 18:49:30 17° W 18:51:52 10° NW visible
26 Feb 8.5 18:22:26 10° SSW 18:25:36 34° W 18:28:51 10° NNW visible
27 Feb 10.0 05:49:56 10° NE 05:52:38 19° E 05:55:19 10° SE visible
